Weather History for Concordia, KS

Change the Weather History Date:

Monday, May 5, 2014

  Actual Average Record
Temperature  
Mean Temperature 64 °F 60 °F  
Max Temperature 78 °F 71 °F 97 °F (1909)
Min Temperature 50 °F 48 °F 32 °F (1917)
Degree Days  
Heating Degree Days 1 7  
Month to date heating degree days 29 36  
Since 1 July heating degree days 5656 5300  
Cooling Degree Days 0 1  
Month to date cooling degree days 1 5  
Year to date cooling degree days 26 22  
Growing Degree Days 14 (Base 50)    
Moisture  
Dew Point 46 °F    
Average Humidity 58    
Maximum Humidity 83    
Minimum Humidity 33    
Precipitation  
Precipitation 0.00 in 0.12 in 2.14 in (2007)
Month to date precipitation 0.00 0.56  
Year to date precipitation 2.71 6.39  
Snow  
Snow 0.00 in 0.00 in T in (1953)
Month to date snowfall 0.0 0.0  
Year to date snowfall 16.9 13.7  
Since 1 July snowfall 23.2 20.2  
Snow Depth 0.00 in    
Sea Level Pressure  
Sea Level Pressure 29.71 in    
Wind  
Wind Speed 10 mph (NE)    
Max Wind Speed 21 mph    
Max Gust Speed 32 mph    
Visibility 10 miles    
Events      
T = Trace of Precipitation, MM = Missing Value Source: NWS Daily Summary

Daily Weather History Graph

Daily Weather History Graph

Search for Another Location

Airport:

Trip Planner

Search our weather history database for the weather conditions in past years. The results will help you decide how hot, cold, wet, or windy it might be!

Date:

Astronomy

May. 05, 2014 Rise Set
Actual Time 6:26 AM CDT 8:28 PM CDT
Civil Twilight 5:57 AM CDT 8:57 PM CDT
Nautical Twilight 5:21 AM CDT 9:34 PM CDT
Astronomical Twilight 4:42 AM CDT 10:13 PM CDT
Moon 11:47 AM CDT (5/5) 1:13 AM CDT (5/5)
Length of Visible Light 15h 00m
Length of Day
14h 01m
Waxing Crescent, 37% of the Moon is Illuminated
May 5
Waxing Crescent
May 6
First Quarter
May 14
Full
May 21
Last Quarter
May 28
New

Hourly Weather History & Observations

Time (CDT) Temp. Dew Point Humidity Pressure Visibility Wind Dir Wind Speed Gust Speed Precip Events Conditions
12:55 AM 59.0 °F 48.0 °F 67% 29.67 in 10.0 mi ENE 8.1 mph - N/A   Clear
1:55 AM 55.9 °F 46.9 °F 72% 29.66 in 10.0 mi ENE 6.9 mph - N/A   Clear
2:55 AM 54.0 °F 46.0 °F 75% 29.66 in 10.0 mi NE 5.8 mph - N/A   Clear
3:55 AM 52.0 °F 46.0 °F 80% 29.67 in 10.0 mi NNE 9.2 mph - N/A   Clear
4:55 AM 51.1 °F 45.0 °F 80% 29.68 in 10.0 mi NNE 10.4 mph - N/A   Clear
5:55 AM 50.0 °F 44.1 °F 80% 29.71 in 10.0 mi NE 10.4 mph - N/A   Clear
6:55 AM 50.0 °F 43.0 °F 77% 29.71 in 10.0 mi NE 11.5 mph - N/A   Clear
7:55 AM 52.0 °F 44.1 °F 74% 29.73 in 10.0 mi NE 15.0 mph - N/A   Clear
8:55 AM 55.0 °F 44.1 °F 67% 29.72 in 10.0 mi NE 11.5 mph - N/A   Clear
9:55 AM 60.1 °F 45.0 °F 57% 29.75 in 10.0 mi ENE 10.4 mph - N/A   Clear
10:55 AM 64.9 °F 46.0 °F 50% 29.75 in 10.0 mi NNE 13.8 mph - N/A   Clear
11:55 AM 71.1 °F 46.9 °F 42% 29.75 in 10.0 mi NNE 16.1 mph - N/A   Clear
12:55 PM 73.4 °F 46.4 °F 38% 29.77 in 10.0 mi NE 15.0 mph 25.3 mph N/A   Clear
1:55 PM 75.0 °F 46.9 °F 37% 29.74 in 10.0 mi NE 16.1 mph 24.2 mph N/A   Clear
2:55 PM 77.0 °F 46.9 °F 34% 29.73 in 10.0 mi NE 11.5 mph 20.7 mph N/A   Clear
3:55 PM 77.0 °F 46.9 °F 34% 29.71 in 10.0 mi NE 12.7 mph - N/A   Clear
4:55 PM 77.0 °F 46.9 °F 34% 29.71 in 10.0 mi ENE 10.4 mph 20.7 mph N/A   Clear
5:55 PM 75.0 °F 46.9 °F 37% 29.70 in 10.0 mi ENE 11.5 mph - N/A   Clear
6:55 PM 73.9 °F 46.0 °F 37% 29.70 in 10.0 mi NE 15.0 mph - N/A   Clear
7:55 PM 70.0 °F 46.0 °F 42% 29.70 in 10.0 mi NE 9.2 mph - N/A   Clear
8:55 PM 64.9 °F 45.0 °F 48% 29.70 in 10.0 mi ENE 5.8 mph - N/A   Clear
9:55 PM 63.0 °F 45.0 °F 52% 29.72 in 10.0 mi ENE 5.8 mph - N/A   Clear
10:55 PM 61.0 °F 45.0 °F 56% 29.72 in 10.0 mi East 4.6 mph - N/A   Clear
11:55 PM 57.9 °F 45.0 °F 62% 29.70 in 10.0 mi East 5.8 mph - N/A   Clear